This demonstration page uses our WeatherBlox Daily Observations layout. Learn more.

Hourly Observations for November 1, 2015

Temp ( °F °C ) Dew Point ( °F °C ) Humidity (%) Winds ( mph kmh ) Pressure ( in mb ) Visibility ( mi km ) Precip ( " mm )
11:15 am 11:15 Sunny 68 20 37 3 33 33 WSW 9 15 29.8 1009 10 16.09344 0 0
11:35 am 11:35 Sunny 68 20 37 3 33 33 WSW 12 19 29.8 1009 10 16.09344 0 0
11:55 am 11:55 Sunny 70 21 37 3 31 31 WSW 9 15 29.8 1009 10 16.09344 0 0
12:15 pm 12:15 Sunny 72 22 37 3 29 29 SW 7 11 29.77 1008 10 16.09344 0 0
12:35 pm 12:35 Sunny 73 23 36 2 25 25 SW 8 13 29.74 1007 10 16.09344 0 0
12:55 pm 12:55 Sunny 75 24 36 2 24 24 W 15 24 29.74 1007 10 16.09344 0 0
1:15 pm 13:15 Sunny 75 24 34 1 22 22 WSW 9 15 29.71 1006 10 16.09344 0 0
1:35 pm 13:35 Sunny 77 25 34 1 21 21 W 13 20 29.68 1005 10 16.09344 0 0
1:55 pm 13:55 undefined 77 25 32 0 19 19 WSW 8 13 29.68 1005 N/A 0 0
2:15 pm 14:15 Sunny 79 26 32 0 18 18 W 8 13 29.68 1005 10 16.09344 0 0
2:35 pm 14:35 Sunny 79 26 32 0 18 18 WSW 9 15 29.65 1004 10 16.09344 0 0
2:55 pm 14:55 Sunny 79 26 30 -1 17 17 WSW 13 20 29.65 1004 10 16.09344 0 0
3:15 pm 15:15 Sunny 79 26 30 -1 17 17 SW 13 20 29.65 1004 10 16.09344 0 0
3:35 pm 15:35 Sunny 79 26 32 0 18 18 SW 14 22 29.65 1004 10 16.09344 0 0
3:55 pm 15:55 Sunny 75 24 32 0 21 21 SW 8 13 29.68 1005 10 16.09344 0 0
4:15 pm 16:15 Sunny 75 24 34 1 22 22 SW 6 9 29.68 1005 10 16.09344 0 0
4:35 pm 16:35 Sunny 77 25 32 0 19 19 SW 7 11 29.65 1004 10 16.09344 0 0
4:55 pm 16:55 Sunny 75 24 34 1 22 22 SW 7 11 29.68 1005 10 16.09344 0 0
5:15 pm 17:15 Sunny 72 22 34 1 25 25 SW 7 11 29.68 1005 10 16.09344 0 0
5:35 pm 17:35 Clear 70 21 34 1 27 27 SSW 7 11 29.74 1007 10 16.09344 0 0
5:55 pm 17:55 Clear 59 15 39 4 48 48 SSW 5 7 29.77 1008 10 16.09344 0 0
6:15 pm 18:15 Clear 61 16 37 3 42 42 SW 5 7 29.77 1008 10 16.09344 0 0
6:35 pm 18:35 Clear 61 16 36 2 39 39 SSW 6 9 29.77 1008 10 16.09344 0 0
6:55 pm 18:55 Clear 59 15 37 3 45 45 SW 7 11 29.77 1008 10 16.09344 0 0
7:15 pm 19:15 Clear 61 16 37 3 42 42 SW 8 13 29.77 1008 10 16.09344 0 0
7:35 pm 19:35 Clear 59 15 37 3 45 45 SW 10 17 29.77 1008 10 16.09344 0 0
7:55 pm 19:55 Clear 59 15 39 4 48 48 SW 9 15 29.77 1008 10 16.09344 0 0
8:15 pm 20:15 Clear 59 15 39 4 48 48 SW 8 13 29.77 1008 10 16.09344 0 0
8:35 pm 20:35 Clear 59 15 39 4 48 48 SW 7 11 29.77 1008 10 16.09344 0 0
8:55 pm 20:55 Clear 57 14 39 4 51 51 SW 8 13 29.8 1009 10 16.09344 0 0
9:15 pm 21:15 Clear 57 14 39 4 51 51 SW 8 13 29.8 1009 10 16.09344 0 0
9:35 pm 21:35 Clear 57 14 41 5 55 55 SW 8 13 29.8 1009 10 16.09344 0 0
9:55 pm 21:55 Clear 57 14 41 5 55 55 SW 8 13 29.8 1009 10 16.09344 0 0
10:15 pm 22:15 Clear 57 14 39 4 51 51 SW 8 13 29.8 1009 10 16.09344 0 0
10:35 pm 22:35 Clear 55 13 41 5 59 59 SW 7 11 29.8 1009 10 16.09344 0 0
10:55 pm 22:55 Clear 55 13 41 5 59 59 SW 7 11 29.8 1009 10 16.09344 0 0
11:15 pm 23:15 Clear 57 14 41 5 55 55 SW 7 11 29.8 1009 10 16.09344 0 0
11:35 pm 23:35 Clear 57 14 41 5 55 55 SW 9 15 29.8 1009 10 16.09344 0 0
11:55 pm 23:55 Clear 57 14 41 5 55 55 SW 8 13 29.8 1009 10 16.09344 0 0

Powered by AerisWeather